Location: Lussas
(44.6119°N, 4.4726°E)
Time: 13:21:23
(UTC+00:00)

SAR-Lupe-1 - Pass Details

Date: 21 April 2021
Orbit: 482 x 483 km, 98.2° (Epoch: 30 March)

Event Time Altitude Azimuth Distance (km) Brightness Sun altitude
Rises 19:53:49 0° 359° (N) 2,559 8.2 -13.5°
Reaches altitude 10° 19:56:16 10° 342° (NNW) 1,673 7.6 -13.9°
Maximum altitude 19:58:55 20° 294° (WNW) 1,178 7.1 -14.3°
Drops below altitude 10° 20:01:34 10° 246° (WSW) 1,663 7.2 -14.7°
Sets 20:04:00 0° 229° (SW) 2,538 7.9 -15.0°
